Satellite-Ground Cal/Val Site Overpasses Predictions

Prediction of Satellite NPP Overpassing Cal/Val Site: Antarctic Dome C

Ground Cal/Val Site Location: Latitude: -75.10, Longitude: 123.35; Satellite-Ground Site NADIR distance within 100 km.

Table of predicted overpasses for the next 14.0 days since TLE Epoch: 3/27/2020
Interval Starting Time Ending Time Minimum Distance Time Minimum Distance (km)
1 03/27/2020 14:35:53 03/27/2020 14:36:08 03/27/2020 14:36:00 85.47
2 03/28/2020 07:37:25 03/28/2020 07:37:52 03/28/2020 07:37:39 35.83
3 03/29/2020 07:18:40 03/29/2020 07:18:59 03/29/2020 07:18:50 74.32
4 03/31/2020 15:00:55 03/31/2020 15:01:18 03/31/2020 15:01:07 58.71
5 04/01/2020 14:42:04 04/01/2020 14:42:29 04/01/2020 14:42:17 50.49
6 04/02/2020 07:43:46 04/02/2020 07:44:06 04/02/2020 07:43:56 71.02
7 04/03/2020 07:24:54 04/03/2020 07:25:21 04/03/2020 07:25:07 36.86
8 04/05/2020 15:07:21 04/05/2020 15:07:28 04/05/2020 15:07:24 96.48
9 04/06/2020 14:48:19 04/06/2020 14:48:48 04/06/2020 14:48:34 14.75


NCC Satellite Cal/Val Overpasses Prediction Service
